Wind_Speed
85 91 91 92 89 87 85 82 81 80 80 80 79 78 69 83 82 84 84 82 86 87 90 91 93 90 88 92 94 96 98 103 104 103 105 109 109 110 113 119 122 124 129
74 81 88 90 91 87 87 84 83 82 79 76 74 71 73 62 72 73 78 85 88 89 93 88 88 91 93 94 98 102 103 105 104 105 110 109 112 116 119 123 128 131 136
71 75 81 88 88 88 85 86 86 84 81 74 69 61 56 58 75 73 78 76 81 80 81 84 89 95 94 97 101 101 104 105 106 107 107 114 120 122 126 130 131 132 139
66 69 74 79 83 86 86 86 84 80 78 76 70 64 61 67 73 75 80 80 84 81 84 87 89 93 96 99 98 100 102 102 103 107 114 120 125 123 125 127 133 137 140
65 67 69 71 74 80 84 83 78 73 80 71 66 68 71 78 80 80 84 86 85 85 88 91 94 96 95 96 98 102 104 107 113 118 119 120 119 125 129 131 134 136 139
60 65 68 68 67 71 78 82 80 78 72 70 71 70 80 83 90 94 97 94 93 96 98 96 99 102 100 100 101 106 109 112 113 116 120 117 124 122 130 133 134 141 144
53 60 64 66 67 70 73 76 76 76 76 78 77 81 82 87 89 92 92 93 97 103 103 103 103 101 102 106 106 108 111 113 117 121 123 125 126 132 133 138 143 146 149
45 53 58 63 65 67 70 72 76 78 84 77 81 86 95 100 99 97 99 101 103 102 102 104 104 102 102 103 107 109 111 114 113 118 121 129 134 136 138 142 143 147 153
36 43 52 58 61 64 66 70 75 80 83 82 85 89 91 95 96 98 99 100 101 103 103 100 101 106 105 104 103 104 109 111 120 124 130 133 135 137 140 142 146 151 156
22 29 38 47 55 60 64 66 70 75 80 83 86 88 91 94 96 99 100 100 99 95 96 98 98 99 98 102 107 111 113 118 123 125 129 132 135 139 145 151 155 159 163
11 18 24 33 42 49 56 61 62 64 67 70 74 77 80 83 86 87 87 86 88 92 91 92 95 98 102 105 106 111 117 120 125 127 132 137 142 148 153 156 161 161 160
8 10 15 21 25 32 37 42 48 52 54 55 57 59 62 65 70 74 76 78 81 84 86 88 92 96 101 105 110 114 117 120 126 132 138 142 147 152 156 160 155 156 154
2 5 7 11 17 23 28 34 40 42 45 46 49 53 58 61 64 68 72 74 76 80 86 91 96 99 101 106 111 117 122 127 132 138 143 149 152 153 151 153 150 142 143
4 5 7 9 10 13 17 22 26 30 35 39 44 47 52 56 62 66 69 72 76 82 88 92 96 101 107 113 118 124 129 134 139 142 144 147 146 150 146 139 138 130 125
18 19 20 22 24 25 27 29 32 38 43 45 47 49 54 58 61 64 70 75 81 86 91 96 101 106 113 120 126 130 131 133 140 141 141 144 138 136 135 128 122 122 119
13 16 17 18 20 23 27 32 35 38 42 46 50 54 58 63 69 75 80 85 90 94 99 104 110 116 119 118 122 131 134 137 142 141 134 131 126 125 122 118 116 113 114
23 24 27 28 30 33 36 40 44 49 52 56 61 65 70 75 78 83 89 93 96 101 104 106 107 110 117 121 126 132 135 136 134 134 131 125 119 122 116 113 115 114 115
33 35 37 39 42 43 46 51 54 58 62 65 69 73 77 80 83 84 88 91 94 97 101 105 110 114 120 123 127 128 128 128 126 122 123 122 119 119 122 122 122 120 119
42 44 45 49 51 55 56 59 62 62 63 66 67 70 72 75 78 83 88 93 97 102 107 112 115 117 115 115 119 121 120 120 121 121 126 128 131 128 131 129 124 122 119
30 32 34 37 41 45 48 51 54 58 63 67 71 75 79 83 87 91 95 100 103 104 105 106 107 107 107 107 110 114 116 118 121 127 131 134 136 136 131 127 124 121 114
44 46 47 50 52 55 58 61 64 67 71 75 79 83 87 89 91 89 87 88 92 93 92 90 93 96 101 107 111 114 118 122 128 131 129 129 132 131 126 124 117 110 102
49 50 50 51 51 54 56 57 59 60 60 61 61 61 62 64 67 68 71 73 77 82 84 88 93 94 96 101 109 115 121 124 122 124 124 129 125 123 118 113 105 97 91
32 32 33 36 39 40 40 44 48 47 53 55 58 60 55 61 64 65 69 73 76 80 82 80 86 91 96 95 98 107 114 119 113 116 119 117 116 112 106 101 94 90 85
34 38 40 43 42 38 38 38 36 40 36 39 38 41 45 55 54 56 64 65 69 73 78 84 86 89 97 102 105 108 112 114 111 110 109 106 104 101 97 93 88 84 80
28 25 26 30 34 34 35 34 36 45 38 48 54 57 65 67 68 70 75 73 78 84 89 93 98 100 103 105 106 107 108 108 106 103 97 96 94 92 90 87 83 80 76
29 34 32 40 48 45 46 52 52 57 59 59 64 73 76 82 85 85 85 86 90 92 94 98 102 103 104 104 105 104 102 103 100 96 93 92 90 89 86 83 80 76 72
Wind_Direction
233 234 236 236 233 234 236 239 241 243 245 248 251 253 261 260 264 265 268 270 272 273 274 277 280 281 281 284 286 287 288 290 290 290 290 294 297 297 296 296 298 297 299
230 231 233 235 234 232 235 238 241 243 246 248 251 255 257 262 268 266 269 272 271 272 275 277 278 280 281 284 288 290 289 289 291 289 293 296 297 296 295 296 297 298 300
228 229 231 233 235 235 234 236 239 242 245 247 248 251 251 256 252 263 262 264 271 273 273 276 278 281 285 287 288 289 291 292 293 294 294 294 295 294 297 297 300 302 302
225 227 228 230 233 235 235 237 238 241 243 245 247 245 244 251 254 259 262 265 267 271 276 279 281 282 285 286 288 290 290 291 290 290 291 293 295 297 299 300 302 302 303
226 225 226 228 230 233 236 238 238 238 242 242 241 241 247 253 255 254 260 259 264 274 278 280 282 283 284 286 288 291 289 288 289 292 294 294 297 298 299 299 301 302 303
224 224 224 225 227 229 232 235 237 238 240 240 236 243 245 249 255 258 260 261 266 274 277 280 282 285 286 287 286 287 288 289 290 292 294 295 295 297 298 301 301 301 303
224 223 223 224 225 227 230 233 235 238 236 237 238 235 248 250 249 253 257 261 264 274 279 281 283 284 285 285 287 288 290 290 290 290 293 295 296 296 298 298 300 301 302
223 224 222 222 224 227 230 231 231 231 239 238 237 238 241 248 251 255 261 266 271 275 277 281 284 285 284 285 286 287 288 291 293 293 293 293 295 296 298 300 300 299 300
222 224 224 223 222 225 229 230 232 235 238 239 239 242 247 252 257 261 265 268 271 275 278 280 281 282 284 286 288 289 289 290 291 291 293 295 296 297 297 298 300 299 301
229 227 226 226 225 226 228 231 235 238 240 244 247 251 254 257 260 263 266 269 273 274 274 280 281 284 285 285 286 289 290 291 292 294 294 295 295 298 299 299 300 302 304
225 224 225 227 228 230 232 233 237 241 245 248 251 254 258 260 263 266 269 271 272 275 277 278 281 282 284 287 288 288 290 292 293 293 294 297 298 299 298 300 302 303 303
188 208 220 229 233 236 238 241 243 246 249 251 254 258 260 261 263 266 269 271 272 276 280 282 283 284 285 287 288 290 290 290 290 293 295 295 296 297 299 301 302 303 305
156 188 218 243 247 246 246 243 244 248 251 254 257 259 261 263 266 268 270 273 276 278 281 283 284 284 285 286 287 288 290 291 292 294 295 295 298 299 300 301 303 303 304
238 230 260 267 265 263 263 263 264 266 267 267 268 269 269 267 268 271 274 277 278 280 282 283 284 283 285 286 286 288 290 291 293 294 296 296 298 299 302 302 303 304 306
274 276 270 269 265 261 259 258 260 261 264 265 265 267 269 271 274 276 280 281 281 281 282 284 285 286 286 287 289 292 293 292 292 295 297 299 300 301 302 304 306 309 310
247 244 259 271 267 268 261 262 262 267 270 275 280 280 277 276 275 276 279 280 281 283 284 285 285 286 289 291 289 291 295 296 296 299 301 302 303 304 306 309 311 312 312
279 275 276 275 273 272 273 274 273 273 272 271 271 271 274 276 278 279 280 282 283 284 285 287 288 287 288 294 294 295 298 298 301 302 305 306 307 310 313 313 314 314 313
272 270 269 269 271 271 271 272 272 273 276 277 278 278 279 281 282 283 284 285 286 286 287 289 292 293 294 295 297 298 300 300 302 306 307 310 312 313 314 315 316 316 315
277 276 275 273 276 277 278 279 281 281 281 282 282 282 284 285 286 286 286 287 289 290 290 292 294 296 297 297 296 297 300 304 306 306 309 311 312 314 314 313 314 314 315
291 290 286 283 281 280 280 281 282 282 283 284 283 283 284 286 288 290 290 290 292 293 295 295 296 297 298 298 300 301 303 303 304 307 309 310 310 312 313 312 313 314 314
292 291 290 289 287 286 285 285 286 287 287 288 288 288 290 292 294 296 297 296 297 299 298 298 300 300 299 299 299 300 300 300 303 305 307 308 310 310 311 312 312 312 313
293 293 294 294 294 292 291 291 292 294 296 298 300 303 306 306 306 307 305 303 302 301 298 294 296 296 297 297 299 298 300 303 305 305 307 309 310 310 311 312 313 314 314
298 299 299 298 297 299 300 303 311 312 316 316 311 311 311 306 300 294 301 293 294 294 298 303 301 304 303 306 308 308 308 309 310 310 310 309 310 310 311 313 314 314 314
323 329 326 324 324 325 322 317 319 303 306 320 321 311 306 325 310 309 304 312 314 313 313 306 306 308 309 312 312 312 312 312 311 311 313 313 313 313 314 314 314 314 316
338 326 330 324 313 298 306 318 313 323 312 324 334 331 336 335 335 325 325 326 323 325 322 320 320 320 318 318 316 315 314 313 314 315 315 314 315 315 315 315 316 317 316
328 340 328 340 337 340 348 347 330 338 338 337 331 335 336 337 335 332 331 330 329 328 327 325 324 324 323 322 320 319 318 317 317 316 315 316 316 315 316 317 317 318 317
Height
10420 10435 10451 10462 10476 10488 10497 10508 10517 10523 10530 10535 10540 10545 10542 10540 10535 10531 10525 10524 10517 10514 10510 10506 10501 10494 10487 10483 10477 10469 10463 10457 10447 10436 10425 10415 10404 10391 10379 10367 10354 10339 10324
10406 10419 10430 10443 10456 10470 10481 10492 10499 10505 10513 10521 10523 10525 10526 10524 10516 10511 10509 10501 10500 10499 10495 10490 10482 10474 10469 10463 10456 10451 10442 10434 10427 10416 10406 10395 10384 10369 10355 10341 10329 10315 10298
10388 10401 10412 10425 10438 10453 10465 10472 10480 10489 10497 10504 10508 10511 10510 10508 10503 10494 10488 10489 10485 10482 10478 10473 10464 10458 10453 10446 10440 10430 10422 10414 10404 10394 10383 10372 10360 10348 10333 10317 10303 10288 10268
10376 10387 10396 10409 10423 10436 10447 10454 10466 10474 10482 10489 10493 10496 10494 10490 10486 10476 10474 10474 10469 10466 10462 10457 10450 10443 10436 10429 10422 10413 10403 10393 10382 10370 10359 10347 10335 10321 10306 10294 10276 10262 10243
10365 10375 10384 10396 10409 10421 10429 10440 10453 10460 10462 10473 10478 10477 10476 10474 10470 10462 10456 10454 10451 10449 10445 10440 10435 10428 10420 10412 10403 10392 10382 10371 10361 10348 10335 10323 10309 10295 10282 10267 10255 10240 10216
10352 10362 10372 10384 10396 10406 10413 10421 10435 10444 10452 10456 10459 10461 10456 10456 10451 10444 10439 10441 10438 10431 10429 10424 10418 10409 10403 10394 10383 10372 10361 10350 10338 10326 10312 10297 10285 10272 10256 10242 10227 10212 10196
10341 10349 10361 10374 10382 10389 10399 10408 10419 10428 10435 10439 10442 10443 10438 10434 10432 10430 10429 10426 10423 10416 10412 10406 10400 10392 10383 10374 10363 10351 10340 10329 10313 10300 10288 10274 10260 10247 10232 10217 10201 10182 10162
10333 10341 10351 10360 10370 10378 10386 10396 10403 10410 10411 10421 10422 10421 10418 10413 10418 10418 10415 10413 10408 10401 10394 10387 10380 10373 10361 10351 10341 10329 10318 10306 10291 10277 10264 10250 10236 10221 10206 10190 10175 10156 10136
10329 10335 10342 10350 10359 10367 10375 10382 10388 10393 10399 10402 10404 10405 10407 10408 10406 10404 10401 10395 10388 10383 10376 10368 10358 10349 10339 10332 10320 10306 10293 10281 10267 10253 10237 10223 10207 10193 10178 10161 10142 10123 10108
10328 10332 10337 10344 10351 10358 10364 10370 10377 10382 10386 10390 10394 10396 10396 10394 10392 10386 10384 10380 10374 10365 10357 10350 10340 10329 10317 10306 10296 10284 10270 10257 10240 10225 10209 10195 10179 10161 10143 10124 10107 10090 10071
10327 10330 10334 10339 10345 10350 10357 10363 10367 10371 10375 10378 10380 10380 10380 10377 10375 10371 10366 10360 10353 10345 10337 10328 10318 10308 10298 10286 10274 10261 10246 10231 10216 10198 10179 10162 10143 10124 10106 10089 10072 10055 10031
10327 10329 10333 10337 10341 10346 10351 10355 10358 10360 10362 10363 10363 10363 10362 10359 10356 10352 10346 10340 10332 10325 10316 10307 10298 10287 10277 10265 10252 10238 10224 10210 10191 10174 10156 10136 10117 10098 10079 10059 10037 10019 9995
10329 10331 10334 10336 10339 10341 10344 10347 10348 10350 10350 10350 10349 10348 10345 10342 10338 10332 10326 10320 10313 10305 10297 10287 10277 10267 10255 10241 10228 10214 10197 10181 10161 10143 10127 10110 10091 10070 10049 10030 10011 9991 9968
10329 10331 10333 10335 10336 10337 10337 10338 10338 10338 10338 10336 10334 10332 10328 10324 10319 10314 10309 10302 10295 10287 10278 10267 10257 10244 10230 10215 10199 10182 10165 10151 10135 10116 10097 10079 10059 10042 10020 10001 9985 9963 9941
10330 10330 10330 10330 10330 10330 10330 10330 10329 10327 10325 10323 10320 10318 10315 10311 10306 10299 10292 10283 10275 10266 10255 10244 10230 10216 10200 10183 10169 10156 10138 10116 10098 10083 10066 10051 10030 10011 9988 9971 9952 9931 9909
10327 10326 10326 10325 10324 10323 10322 10321 10319 10317 10315 10313 10310 10306 10301 10295 10288 10281 10273 10263 10253 10242 10230 10215 10200 10189 10177 10159 10136 10118 10105 10084 10068 10049 10032 10016 9998 9979 9959 9937 9917 9898 9881
10322 10321 10320 10319 10318 10317 10315 10312 10310 10307 10303 10299 10294 10288 10281 10274 10266 10257 10248 10237 10226 10213 10202 10192 10178 10159 10143 10132 10112 10092 10073 10050 10035 10017 9999 9978 9961 9942 9921 9904 9887 9870 9852
10313 10311 10309 10308 10306 10304 10301 10297 10294 10289 10285 10280 10273 10266 10259 10251 10242 10232 10222 10211 10199 10187 10173 10162 10148 10134 10116 10101 10082 10064 10044 10026 10006 9988 9966 9948 9930 9913 9894 9875 9857 9841 9824
10299 10296 10294 10292 10290 10287 10284 10280 10275 10270 10265 10258 10250 10243 10235 10226 10217 10206 10195 10185 10174 10161 10148 10135 10122 10108 10090 10073 10054 10036 10018 10000 9980 9960 9938 9918 9899 9880 9863 9845 9829 9811 9795
10286 10283 10281 10277 10273 10269 10264 10260 10255 10249 10242 10234 10226 10219 10213 10205 10195 10185 10173 10160 10148 10135 10122 10107 10094 10080 10063 10045 10027 10010 9991 9970 9952 9932 9911 9889 9868 9849 9833 9814 9797 9784 9767
10272 10269 10266 10262 10258 10253 10247 10242 10236 10230 10222 10215 10207 10199 10192 10182 10171 10160 10147 10134 10122 10111 10097 10082 10066 10050 10035 10018 10000 9982 9963 9943 9924 9906 9883 9863 9841 9822 9803 9785 9770 9755 9742
10257 10253 10249 10244 10239 10234 10228 10223 10217 10210 10203 10194 10186 10178 10168 10158 10148 10137 10125 10113 10101 10087 10072 10057 10041 10026 10010 9990 9973 9957 9940 9921 9898 9878 9858 9838 9813 9795 9777 9760 9745 9730 9716
10241 10236 10232 10227 10222 10217 10211 10205 10198 10190 10183 10175 10167 10160 10152 10142 10132 10120 10106 10094 10081 10066 10051 10034 10018 10000 9983 9964 9945 9928 9909 9889 9868 9849 9833 9811 9790 9771 9752 9738 9723 9708 9695
10231 10226 10220 10216 10212 10206 10199 10193 10187 10180 10171 10163 10153 10144 10133 10121 10110 10097 10084 10070 10055 10038 10022 10006 9991 9975 9956 9935 9915 9895 9876 9857 9837 9820 9802 9782 9762 9745 9729 9715 9700 9688 9677
10225 10220 10215 10208 10204 10196 10188 10181 10173 10162 10152 10143 10132 10120 10109 10100 10085 10075 10061 10045 10030 10013 9996 9978 9961 9944 9926 9906 9886 9866 9846 9827 9809 9793 9777 9759 9741 9723 9708 9693 9680 9669 9656
10217 10212 10206 10199 10191 10182 10173 10163 10155 10144 10134 10124 10113 10102 10090 10078 10065 10051 10036 10020 10005 9989 9971 9954 9936 9917 9897 9878 9858 9838 9819 9800 9783 9765 9749 9733 9718 9701 9687 9673 9659 9648 9636